Home > Weather > Adelaide > Past weeks

Flag for Australia Weather for the Past 2 Weeks in Adelaide, South Australia, Australia

Now
73 °F

Scattered clouds.


Feels Like: 77 °F
Forecast: 61 / 72 °F
Wind: 8 mph from West

Location: Adelaide Airport

Current Time: Feb 13, 2016 at 11:09:35 AM

Latest Report: Feb 13, 2016 at 10:00 AM


Visibility: N/A

Pressure: 29.89 "Hg

Humidity: 50%

Dew point: 54 °F

Location of AdelaideLocation

Historic Weather in Adelaide — Graph

°F

Adelaide Temperature Yesterday

Maximum temperature yesterday: 81 °F (at 3:00 PM)
Minimum temperature yesterday: 59 °F (at 5:00 AM)
Average temperature yesterday: 70 °F

High & Low Weather Summary for the Past Weeks

 TemperatureHumidityPressure
High90 °F (Feb 11, 2:30 PM)94% (Jan 29, 11:34 PM)30.18 "Hg (Jan 29, 11:34 PM)
Low57 °F (Jan 30, 1:00 AM)22% (Feb 11, 2:30 PM)29.39 "Hg (Feb 2, 8:19 AM)
Average70 °F61%29.88 "Hg
* Reported Jan 29 9:30 AM — Feb 13 9:30 AM, Adelaide, Weather by CustomWeather, © 2016

Note: Actual official high and low records may vary slightly from our data, if they occured in-between our weather recording intervals... More about our weather records

Advertising

Adelaide Weather History for the Previous 24 Hours

 ConditionsComfort  
Time TempWeatherWind HumidityBarometerVisibility
9:30 AM
Sat, Feb 13
73 °FScattered clouds.6 mph57%29.89 "HgN/A
8:30 AM70 °FScattered clouds.6 mph60%29.89 "HgN/A
8:00 AM66 °FScattered clouds.5 mph60%29.89 "HgN/A
7:30 AM64 °FPartly sunny.5 mph68%29.89 "HgN/A
7:00 AM63 °FClear.5 mph73%29.89 "Hg10 mi
6:30 AM63 °FClear.5 mph68%29.86 "Hg10 mi
5:30 AM63 °FClear.6 mph68%29.83 "Hg10 mi
5:00 AM61 °FClear.No wind77%29.86 "Hg10 mi
4:30 AM63 °FClear.No wind68%29.83 "Hg10 mi
4:00 AM63 °FClear.No wind68%29.83 "Hg10 mi
3:30 AM64 °FClear.5 mph64%29.83 "Hg10 mi
2:30 AM63 °FClear.2 mph73%29.86 "Hg10 mi
2:00 AM64 °FClear.5 mph68%29.86 "Hg10 mi
1:30 AM66 °FClear.5 mph68%29.86 "Hg10 mi
1:00 AM64 °FClear.6 mph68%29.89 "Hg10 mi
12:30 AM70 °FClear.3 mph83%29.89 "Hg10 mi
12:00 AM68 °FClear.5 mph78%29.89 "Hg10 mi
11:30 PM
Fri, Feb 12
68 °FClear.5 mph73%29.86 "Hg10 mi
11:00 PM68 °FClear.No wind69%29.86 "Hg10 mi
10:30 PM72 °FClear.No wind61%29.86 "Hg10 mi
10:00 PM72 °FClear.6 mph61%29.89 "Hg10 mi
9:30 PM73 °FClear.3 mph61%29.86 "Hg10 mi
9:00 PM73 °FClear.5 mph61%29.89 "Hg10 mi
8:30 PM72 °FSunny.6 mph69%29.89 "Hg10 mi
8:00 PM72 °FSunny.13 mph69%29.89 "Hg10 mi
7:30 PM73 °FSunny.15 mph69%29.89 "Hg10 mi
7:00 PM75 °FSunny.15 mph65%29.89 "Hg10 mi
6:30 PM77 °FSunny.13 mph57%29.86 "Hg10 mi
6:00 PM79 °FSunny.12 mph51%29.86 "Hg10 mi
5:30 PM81 °FSunny.10 mph39%29.86 "Hg10 mi
5:00 PM81 °FSunny.9 mph39%29.86 "Hg10 mi
4:30 PM81 °FSunny.10 mph45%29.86 "Hg10 mi
4:00 PM79 °FSunny.9 mph45%29.89 "Hg10 mi
3:30 PM81 °FSunny.10 mph42%29.89 "Hg10 mi
3:00 PM81 °FSunny.12 mph42%29.89 "Hg10 mi
2:30 PM77 °FSunny.12 mph51%29.92 "Hg10 mi
2:00 PM77 °FSunny.12 mph57%29.92 "Hg10 mi
1:30 PM77 °FSunny.10 mph57%29.92 "Hg10 mi
12:30 PM75 °FSunny.10 mph54%29.95 "Hg10 mi
12:00 PM75 °FSunny.10 mph57%29.95 "Hg10 mi
11:30 AM75 °FSunny.8 mph54%29.95 "Hg10 mi
11:00 AM73 °FSunny.7 mph53%29.95 "Hg10 mi
Weather by CustomWeather, © 2016

See weather overviewHow to use our weather pages